This demonstration page uses our WeatherBlox Daily Observations layout. Learn more.

Left ArrowRight Arrow

39.08367, -84.50855

Hourly Observations for April 25, 2019

Temp ( °F °C ) Dew Point ( °F °C ) Humidity (%) Winds ( mph kmh ) Pressure ( in mb ) Visibility ( mi km ) Precip ( " mm )
12:53 am 00:53 Cloudy with Light Rain 57 13.9 55 12.8 93 93 Calm 29.87 1012 10 16.0934 0.02 0.508
1:53 am 01:53 Cloudy with Light Rain 58 14.4 56 13.3 93 93 Calm 29.87 1011 9 14.48406 0.01 0.254
2:53 am 02:53 Cloudy with Light Rain 57 13.9 56 13.3 96 96 Calm 29.84 1011 7 11.26538 0 0.0254
3:45 am 03:45 Cloudy with Rain 57 13.9 56 13.3 96 96 Calm 29.85 1011 2.5 4.02335 0.06 1.524
3:53 am 03:53 Cloudy with Rain 57 13.9 56 13.3 96 96 Calm 29.84 1011 5 8.0467 0.07 1.778
4:53 am 04:53 Cloudy with Light Rain 58 14.4 56 13.3 93 93 Calm 29.83 1010 6 9.65604 0.02 0.508
5:14 am 05:14 Cloudy with Light Rain 58 14.4 56 13.3 93 93 Calm 29.84 1010 6 9.65604 0.02 0.508
5:53 am 05:53 Cloudy with Light Rain 57 13.9 56 13.3 96 96 Calm 29.83 1010 5 8.0467 0.02 0.508
6:53 am 06:53 Cloudy with Light Rain 57 13.9 56 13.3 96 96 Calm 29.83 1010 4 6.43736 0.02 0.508
7:53 am 07:53 Cloudy with Light Rain 58 14.4 57 13.9 97 97 Calm 29.85 1011 3 4.82802 0.02 0.508
8:53 am 08:53 Cloudy with Light Rain 59 15 58 14.4 96 96 Calm 29.85 1011 4 6.43736 0 0.0254
9:53 am 09:53 Cloudy with Light Rain 61 16.1 58 14.4 90 90 ENE 3 6 29.82 1010 5 8.0467 0.02 0.508
10:19 am 10:19 Partly Cloudy with Mist and Fog 61 16.1 59 15 93 93 NE 7 11 29.8 1009 5 8.0467 0 0.0254
10:53 am 10:53 Mostly Sunny 63 17.2 60 15.6 90 90 WSW 5 7 29.83 1010 8 12.87472 0 0.0254
11:53 am 11:53 Sunny 68 20 62 16.7 81 81 S 7 11 29.8 1009 10 16.0934 0 0
12:53 pm 12:53 Partly Cloudy 68 20 62 16.7 81 81 Calm 29.79 1009 10 16.0934 0 0
1:53 pm 13:53 Cloudy with Light Rain 69 20.6 63 17.2 81 81 S 3 6 29.78 1008 4 6.43736 0.01 0.254
2:53 pm 14:53 Mostly Cloudy with Light Rain 69 20.6 64 17.8 84 84 SSW 3 6 29.75 1008 9 14.48406 0.01 0.254
3:53 pm 15:53 Mostly Cloudy 70 21.1 64 17.8 82 82 S 3 6 29.74 1007 10 16.0934 0 0.0254
4:53 pm 16:53 Partly Cloudy 71 21.7 64 17.8 79 79 NE 3 6 29.7 1006 10 16.0934 0 0
5:53 pm 17:53 Mostly Cloudy 70 21.1 66 18.9 87 87 WNW 5 7 29.68 1005 10 16.0934 0.01 0.254
6:53 pm 18:53 Sunny 70 21.1 65 18.3 84 84 NE 3 6 29.65 1004 10 16.0934 0 0
7:53 pm 19:53 Sunny 68 20 65 18.3 90 90 Calm 29.62 1003 10 16.0934 0 0
8:53 pm 20:53 Cloudy with Light Rain 66 18.9 64 17.8 93 93 Calm 29.62 1003 5 8.0467 0.01 0.254
9:14 pm 21:14 Cloudy with Heavy Thunderstorms 61 16.1 58 14.4 90 90 SSW 16 26 29.67 1005 2 3.21868 0.18 4.572
9:40 pm 21:40 Cloudy with Rain 61 16.1 59 15 93 93 S 7 11 29.67 1005 5 8.0467 0.25 6.35
9:53 pm 21:53 Cloudy with Rain 61 16.1 59 15 93 93 S 6 9 29.65 1004 5 8.0467 0.29 7.366
10:50 pm 22:50 Cloudy with Heavy Rain 61 16 61 16 100 100 SSW 7 11 29.65 1004 2.5 4.02335 0.23 5.842
10:53 pm 22:53 Cloudy with Heavy Rain 61 16.1 60 15.6 97 97 S 8 13 29.63 1004 2.5 4.02335 0.24 6.096
11:00 pm 23:00 Cloudy with Light Rain 61 16.1 60 15.6 97 97 S 8 13 29.63 1003 6 9.65604 0 0.0254
11:53 pm 23:53 Cloudy 62 16.7 60 15.6 93 93 S 10 17 29.6 1002 10 16.0934 0.01 0.254

Powered by AerisWeather